• In Deutschland
  • Länderverzeichnis
  • Für 7 Tage
  • Wassertemperatur
  • Satellitenkarten
  • Wetterkarte
  • Widgets
  • user-avatar
    Anmelden

    Stündliche Wetter Jaú

    Heute, 21 Mai, Montag

    Zeit Temperatur Niederschläge Wind Luftdruck Luftfeuchtigkeit
    00:00 +31°C° 0 mm 1 m/S 756 mmHg 35%
    01:00 +31°C° 0 mm 1 m/S 756 mmHg 35%
    02:00 +30°C° 0 mm 1 m/S 755 mmHg 35%
    03:00 +30°C° 0 mm 1 m/S 755 mmHg 33%
    04:00 +30°C° 0 mm 1 m/S 755 mmHg 31%
    05:00 +31°C° 0 mm 2 m/S 756 mmHg 30%
    06:00 +31°C° 0 mm 2 m/S 756 mmHg 28%
    07:00 +34°C° 0 mm 2 m/S 756 mmHg 26%
    08:00 +35°C° 0 mm 2 m/S 756 mmHg 23%
    09:00 +37°C° 0 mm 2 m/S 757 mmHg 20%
    10:00 +38°C° 0 mm 2 m/S 757 mmHg 18%
    11:00 +38°C° 0 mm 2 m/S 757 mmHg 17%
    12:00 +39°C° 0 mm 2 m/S 757 mmHg 16%
    13:00 +39°C° 0 mm 3 m/S 756 mmHg 16%
    14:00 +41°C° 0 mm 4 m/S 756 mmHg 16%
    15:00 +41°C° 0 mm 4 m/S 755 mmHg 15%
    16:00 +40°C° 0 mm 4 m/S 756 mmHg 18%
    17:00 +38°C° 0 mm 4 m/S 756 mmHg 20%
    18:00 +37°C° 0 mm 4 m/S 756 mmHg 23%
    19:00 +36°C° 0 mm 4 m/S 756 mmHg 25%
    20:00 +35°C° 0 mm 3 m/S 756 mmHg 26%
    21:00 +35°C° 0 mm 3 m/S 756 mmHg 28%
    22:00 +34°C° 0 mm 3 m/S 756 mmHg 29%
    23:00 +34°C° 0 mm 3 m/S 756 mmHg 29%

    Morgen, 22 Mai, Dienstag

    Zeit Temperatur Niederschläge Wind Luftdruck Luftfeuchtigkeit
    00:00 +32°C° 0 mm 2 m/S 755 mmHg 29%
    01:00 +32°C° 0 mm 2 m/S 755 mmHg 31%
    02:00 +31°C° 0 mm 2 m/S 755 mmHg 32%
    03:00 +30°C° 0 mm 1 m/S 755 mmHg 33%
    04:00 +30°C° 0 mm 1 m/S 755 mmHg 32%
    05:00 +31°C° 0 mm 1 m/S 756 mmHg 32%
    06:00 +31°C° 0 mm 1 m/S 756 mmHg 31%
    07:00 +32°C° 0 mm 1 m/S 756 mmHg 29%
    08:00 +34°C° 0 mm 1 m/S 756 mmHg 26%
    09:00 +35°C° 0 mm 1 m/S 757 mmHg 23%
    10:00 +36°C° 0 mm 1 m/S 757 mmHg 21%
    11:00 +37°C° 0 mm 1 m/S 757 mmHg 20%
    12:00 +39°C° 0 mm 1 m/S 756 mmHg 18%
    13:00 +39°C° 0 mm 2 m/S 756 mmHg 17%
    14:00 +40°C° 0 mm 2 m/S 756 mmHg 16%
    15:00 +40°C° 0 mm 3 m/S 755 mmHg 15%
    16:00 +39°C° 0 mm 3 m/S 755 mmHg 16%
    17:00 +39°C° 0 mm 3 m/S 755 mmHg 18%
    18:00 +38°C° 0 mm 4 m/S 755 mmHg 19%
    19:00 +37°C° 0 mm 3 m/S 755 mmHg 21%
    20:00 +36°C° 0 mm 3 m/S 755 mmHg 24%
    21:00 +35°C° 0 mm 3 m/S 755 mmHg 26%
    22:00 +35°C° 0 mm 3 m/S 755 mmHg 27%
    23:00 +34°C° 0 mm 3 m/S 755 mmHg 27%

    übermorgen, 23 Mai, Mittwoch

    Zeit Temperatur Niederschläge Wind Luftdruck Luftfeuchtigkeit
    00:00 +34°C° 0 mm 2 m/S 755 mmHg 28%
    01:00 +32°C° 0 mm 2 m/S 755 mmHg 29%
    02:00 +32°C° 0 mm 2 m/S 755 mmHg 30%
    03:00 +31°C° 0 mm 2 m/S 754 mmHg 31%
    04:00 +32°C° 0 mm 2 m/S 755 mmHg 32%
    05:00 +32°C° 0 mm 2 m/S 755 mmHg 33%
    06:00 +32°C° 0 mm 2 m/S 755 mmHg 33%
    07:00 +34°C° 0 mm 2 m/S 755 mmHg 31%
    08:00 +35°C° 0 mm 2 m/S 756 mmHg 28%
    09:00 +36°C° 0 mm 2 m/S 756 mmHg 26%
    10:00 +37°C° 0 mm 2 m/S 756 mmHg 24%
    11:00 +38°C° 0 mm 2 m/S 756 mmHg 22%
    12:00 +39°C° 0 mm 1 m/S 756 mmHg 20%
    13:00 +39°C° 0 mm 2 m/S 755 mmHg 19%
    14:00 +40°C° 0 mm 3 m/S 755 mmHg 17%
    15:00 +41°C° 0 mm 4 m/S 754 mmHg 16%
    16:00 +40°C° 0 mm 4 m/S 754 mmHg 18%
    17:00 +38°C° 0 mm 4 m/S 754 mmHg 21%
    18:00 +37°C° 0 mm 4 m/S 754 mmHg 24%
    19:00 +36°C° 0 mm 3 m/S 754 mmHg 25%
    20:00 +36°C° 0 mm 3 m/S 754 mmHg 25%
    21:00 +35°C° 0 mm 3 m/S 754 mmHg 26%
    22:00 +35°C° 0 mm 3 m/S 754 mmHg 27%
    23:00 +35°C° 0 mm 3 m/S 753 mmHg 27%

    24 Mai, Donnerstag

    Zeit Temperatur Niederschläge Wind Luftdruck Luftfeuchtigkeit
    00:00 +34°C° 0 mm 3 m/S 753 mmHg 27%
    01:00 +34°C° 0 mm 3 m/S 753 mmHg 29%
    02:00 +32°C° 0 mm 2 m/S 753 mmHg 30%
    03:00 +31°C° 0 mm 1 m/S 753 mmHg 32%
    04:00 +32°C° 0 mm 2 m/S 753 mmHg 31%
    05:00 +32°C° 0 mm 2 m/S 753 mmHg 30%
    06:00 +32°C° 0 mm 2 m/S 753 mmHg 29%
    07:00 +35°C° 0 mm 2 m/S 753 mmHg 26%
    08:00 +36°C° 0 mm 3 m/S 754 mmHg 24%
    09:00 +38°C° 0 mm 3 m/S 754 mmHg 21%
    10:00 +39°C° 0 mm 3 m/S 753 mmHg 19%
    11:00 +40°C° 0 mm 3 m/S 753 mmHg 17%
    12:00 +42°C° 0 mm 3 m/S 753 mmHg 15%
    13:00 +42°C° 0 mm 3 m/S 752 mmHg 14%
    14:00 +43°C° 0 mm 3 m/S 752 mmHg 14%
    15:00 +43°C° 0 mm 3 m/S 751 mmHg 13%
    16:00 +42°C° 0 mm 3 m/S 751 mmHg 14%
    17:00 +41°C° 0 mm 4 m/S 751 mmHg 16%
    18:00 +41°C° 0 mm 5 m/S 751 mmHg 17%
    19:00 +39°C° 0 mm 5 m/S 751 mmHg 22%
    20:00 +37°C° 0 mm 5 m/S 751 mmHg 26%
    21:00 +36°C° 0 mm 6 m/S 752 mmHg 31%
    22:00 +36°C° 0 mm 6 m/S 751 mmHg 31%
    23:00 +35°C° 0 mm 6 m/S 751 mmHg 31%

    25 Mai, Freitag

    Zeit Temperatur Niederschläge Wind Luftdruck Luftfeuchtigkeit
    00:00 +35°C° 0 mm 6 m/S 751 mmHg 31%
    01:00 +35°C° 0 mm 5 m/S 751 mmHg 32%
    02:00 +34°C° 0 mm 5 m/S 750 mmHg 33%
    03:00 +34°C° 0 mm 4 m/S 750 mmHg 34%
    04:00 +34°C° 0 mm 4 m/S 751 mmHg 34%
    05:00 +34°C° 0 mm 4 m/S 751 mmHg 34%
    06:00 +34°C° 0 mm 4 m/S 751 mmHg 33%
    07:00 +36°C° 0 mm 4 m/S 752 mmHg 29%
    08:00 +37°C° 0 mm 4 m/S 752 mmHg 25%
    09:00 +40°C° 0 mm 4 m/S 752 mmHg 21%
    10:00 +41°C° 0 mm 4 m/S 752 mmHg 19%
    11:00 +42°C° 0 mm 4 m/S 751 mmHg 17%
    12:00 +43°C° 0 mm 4 m/S 751 mmHg 15%
    13:00 +45°C° 0 mm 5 m/S 751 mmHg 14%
    14:00 +45°C° 0 mm 5 m/S 750 mmHg 13%
    15:00 +46°C° 0 mm 5 m/S 750 mmHg 12%
    16:00 +45°C° 0 mm 6 m/S 750 mmHg 14%
    17:00 +44°C° 0 mm 7 m/S 750 mmHg 17%
    18:00 +43°C° 0 mm 8 m/S 750 mmHg 19%
    19:00 +41°C° 0 mm 7 m/S 750 mmHg 21%
    20:00 +39°C° 0 mm 6 m/S 751 mmHg 23%
    21:00 +38°C° 0 mm 6 m/S 751 mmHg 25%
    22:00 +37°C° 0 mm 5 m/S 751 mmHg 26%
    23:00 +36°C° 0 mm 4 m/S 750 mmHg 27%

    26 Mai, Samstag

    Zeit Temperatur Niederschläge Wind Luftdruck Luftfeuchtigkeit
    00:00 +36°C° 0 mm 3 m/S 750 mmHg 28%
    01:00 +35°C° 0 mm 2 m/S 750 mmHg 29%
    02:00 +34°C° 0 mm 2 m/S 750 mmHg 30%
    03:00 +32°C° 0 mm 1 m/S 750 mmHg 30%
    04:00 +34°C° 0 mm 2 m/S 751 mmHg 31%
    05:00 +34°C° 0 mm 2 m/S 751 mmHg 31%
    06:00 +35°C° 0 mm 3 m/S 752 mmHg 31%
    07:00 +36°C° 0 mm 3 m/S 752 mmHg 30%
    08:00 +37°C° 0 mm 3 m/S 752 mmHg 29%
    09:00 +38°C° 0 mm 3 m/S 753 mmHg 28%
    10:00 +38°C° 0 mm 3 m/S 753 mmHg 26%
    11:00 +39°C° 0 mm 2 m/S 752 mmHg 25%
    12:00 +40°C° 0 mm 2 m/S 752 mmHg 23%
    13:00 +40°C° 0 mm 2 m/S 752 mmHg 22%
    14:00 +40°C° 0 mm 2 m/S 752 mmHg 21%
    15:00 +42°C° 0 mm 3 m/S 751 mmHg 20%
    16:00 +40°C° 0 mm 3 m/S 752 mmHg 22%
    17:00 +39°C° 0 mm 3 m/S 752 mmHg 23%
    18:00 +39°C° 0 mm 3 m/S 752 mmHg 24%
    19:00 +38°C° 0 mm 3 m/S 752 mmHg 26%
    20:00 +37°C° 0 mm 3 m/S 753 mmHg 28%
    21:00 +36°C° 0 mm 3 m/S 753 mmHg 30%
    22:00 +36°C° 0 mm 3 m/S 753 mmHg 34%
    23:00 +35°C° 0 mm 3 m/S 752 mmHg 37%
    Mehr zeigen